Probability
0 0 0 0 0 0 0 0 0 0 0 0 0 0 0 0 0 0 0 0 0 0 0 0 0 0 0 0 0 0 0 0 0 0 0 0 0 0
0 0 0 0 0 0 0 0 0 0 0 0 0 0 0 0 0 0 0 0 0 0 0 0 0 0 0 0 0 0 0 0 0 0 0 0 0 0
0 0 0 0 0 0 0 0 0 0 0 0 0 0 0 0 0 0 0 0 0 0 0 0 0 0 0 0 0 0 0 0 0 0 0 0 0 0
0 0 0 0 0 0 0 0 0 0 0 0 0 0 0 0 0 0 0 0 0 0 0 0 0 0 0 0 0 0 0 0 0 0 0 0 0 0
0 0 0 0 0 0 0 0 0 0 0 0 0 0 0 0 0 0 0 0 0 0 0 0 0 0 0 0 0 0 0 0 0 0 0 0 0 0
0 0 0 0 0 0 0 0 0 0 0 0 0 0 0 0 0 0 0 0 0 0 0 0 0 0 0 0 0 0 0 0 0 0 0 0 0 0
0 0 0 0 0 0 0 0 0 0 0 0 0 0 0 0 0 0 0 0 0 0 0 0 0 0 0 0 0 0 0 0 0 0 0 0 0 0
0 0 0 0 0 0 0 0 0 0 0 0 0 0 0 0 0 0 0 0 0 0 0 0 0 0 0 0 0 0 0 0 0 0 0 0 0 0
0 0 0 0 0 0 0 0 0 0 0 0 0 0 0 0 0 0 0 0 0 0 0 0 0 0 0 0 0 0 0 0 0 0 0 0 0 0
0 0 0 0 0 0 0 0 0 0 0 0 0 0 0 0 0 0 0 0 0 0 0 0 0 0 0 0 0 0 0 0 0 0 0 0 0 0
0 0 0 0 0 0 0 0 0 0 0 0 0 0 0 0 0 0 0 0 0 0 0 0 0 0 0 0 0 0 0 0 0 0 0 0 0 0
0 0 0 0 0 0 0 0 0 0 0 0 0 0 0 0 0 0 0 0 0 0 0 0 0 0 0 0 0 0 0 0 0 0 0 0 0 0
0 0 0 0 0 0 0 0 0 0 0 0 0 0 0 0 0 0 0 0 0 0 0 0 0 0 0 0 0 0 0 0 0 0 0 0 0 0
0 0 0 0 0 0 0 0 0 0 0 0 0 0 0 0 0 0 0 0 0 0 0 0 0 0 0 0 0 0 0 0 0 0 0 0 0 0
0 0 0 0 0 0 0 0 0 0 0 0 0 0 0 0 0 0 0 0 0 0 0 0 0 0 0 0 0 0 0 0 0 0 0 0 0 0
0 0 0 0 0 0 0 0 0 0 0 0 0 0 0 0 0 0 0 0 0 0 0 0 0 0 0 0 0 0 0 0 0 0 0 0 0 0
0 0 0 0 0 0 0 0 0 0 0 0 0 0 0 0 0 0 0 0 0 0 0 0 0 0 0 0 0 0 0 0 0 0 0 0 0 0
0 0 0 0 0 0 0 0 0 0 0 0 0 0 0 0 0 0 0 0 0 0 0 0 0 0 0 0 0 0 0 0 0 0 0 0 0 0
0 0 0 0 0 0 0 0 0 0 0 0 0 0 0 0 0 0 0 0 0 0 0 0 0 0 0 0 0 0 0 0 0 0 0 0 0 0
0 0 0 0 0 0 0 0 0 0 0 0 0 0 0 0 0 0 0 0 0 0 0 0 0 0 0 0 0 0 0 0 0 0 0 0 0 0
0 0 0 0 0 0 0 0 0 0 0 0 0 0 0 0 0 0 0 0 0 0 0 0 0 0 0 0 0 0 0 0 0 0 0 0 0 0
0 0 0 0 0 0 0 0 0 0 0 0 0 0 0 0 0 0 0 0 0 0 0 0 0 0 0 0 0 0 0 0 0 0 0 0 0 0
0 0 0 0 0 0 0 0 0 0 0 0 0 0 0 0 0 0 0 0 0 0 0 0 0 0 0 0 0 0 0 0 0 0 0 0 0 0
Wind_Speed
6 5 4 3 3 3 3 3 4 4 4 3 3 3 3 3 3 3 3 4 4 4 4 3 3 3 3 3 3 3 4 4 4 5 5 6 7 8
5 6 5 4 4 3 3 2 3 3 3 2 3 2 3 2 2 3 3 3 3 4 4 3 3 2 3 3 3 3 3 4 5 5 6 6 6 7
5 6 7 6 5 4 3 3 3 3 4 2 1 1 2 3 2 2 2 3 2 4 4 3 3 3 3 3 3 3 3 3 4 5 6 6 7 6
7 7 8 6 6 5 4 5 4 3 4 4 2 2 2 3 3 3 2 2 2 4 4 3 3 3 3 3 3 3 3 3 4 5 5 6 6 7
8 8 8 8 7 5 6 5 4 4 3 4 3 2 2 2 3 2 3 2 2 3 4 4 4 4 4 4 3 3 3 4 4 5 5 6 6 7
8 8 8 9 9 8 7 7 6 5 4 4 3 3 2 2 3 3 2 2 3 2 3 4 4 5 4 4 4 4 4 4 4 5 5 5 5 6
8 8 8 9 10 9 7 7 7 6 5 5 4 4 4 4 4 3 4 2 3 2 2 3 3 3 3 4 4 4 4 4 4 4 5 5 5 5
8 8 7 9 10 10 10 10 9 8 7 6 5 6 6 5 4 3 3 3 3 2 2 3 2 3 3 3 4 4 4 4 4 4 5 5 5 6
8 8 6 7 9 8 8 9 10 11 11 8 7 8 6 7 6 5 5 5 4 3 2 3 3 4 3 3 6 6 5 5 5 6 6 6 6 6
8 9 8 8 8 8 7 8 8 8 9 8 8 8 6 6 7 6 5 3 1 2 3 3 2 3 3 3 6 6 6 6 6 6 6 6 7 7
7 8 9 9 11 11 9 8 8 7 7 8 8 7 8 8 6 3 4 3 3 3 2 2 2 2 2 3 4 6 6 6 7 7 7 7 8 7
5 7 10 10 12 12 10 9 9 8 6 5 5 5 5 7 8 7 6 5 3 2 3 2 2 1 2 2 2 3 4 6 7 8 8 7 7 4
5 5 6 10 12 13 11 9 10 7 6 6 4 4 3 4 5 5 5 5 4 3 3 3 2 2 2 2 2 3 3 3 3 5 6 7 7 5
5 4 5 8 9 11 9 9 9 7 5 5 4 4 4 4 4 4 4 3 3 4 5 4 3 3 3 2 3 2 2 2 2 3 3 5 6 7
3 5 6 7 7 6 8 9 8 5 5 5 5 5 4 4 3 2 2 2 1 2 3 4 3 3 3 3 3 3 3 3 3 3 3 3 3 3
2 2 3 4 3 3 4 4 4 4 5 5 4 3 3 3 3 3 3 2 2 2 2 3 4 4 4 4 4 4 3 3 3 3 3 3 3 3
2 1 2 2 2 2 2 3 3 3 4 4 4 3 3 3 3 2 2 2 3 3 2 1 1 2 3 4 4 4 4 3 3 3 3 4 4 4
2 2 3 3 3 3 3 3 3 3 3 4 3 3 3 4 3 2 2 3 4 3 3 2 1 0 1 2 5 5 4 3 3 3 3 4 6 4
1 2 3 3 3 3 3 3 3 3 3 3 3 4 4 3 3 3 3 3 3 3 3 3 3 2 3 4 3 4 4 3 2 3 3 4 6 6
0 1 2 3 3 3 3 3 3 3 3 3 3 3 4 3 3 4 4 4 3 3 3 3 3 4 5 4 3 3 5 4 3 4 4 4 4 6
1 0 1 1 2 2 2 2 3 3 3 3 3 4 4 4 4 4 4 5 4 3 4 4 4 4 1 1 2 3 3 4 5 4 3 3 4 4
2 1 0 0 1 1 2 2 2 2 3 3 3 3 3 4 4 4 4 4 3 3 3 2 1 1 2 3 4 4 3 3 3 5 6 7 4 5
3 2 2 1 1 0 1 2 2 2 2 3 3 3 3 3 3 3 4 3 3 3 2 2 1 1 2 2 3 3 3 3 2 3 3 5 8 10
Wind_Direction
210 210 213 219 209 204 193 187 187 210 222 209 201 206 204 197 203 199 203 213 217 226 236 249 257 269 258 252 262 268 273 261 256 255 256 248 250 254
212 209 213 216 207 200 199 209 203 205 226 208 209 194 194 200 203 200 209 213 215 224 233 237 244 254 261 251 257 266 271 264 254 254 259 257 258 262
217 215 216 211 205 201 195 200 206 201 226 243 230 202 195 199 208 210 213 210 223 232 234 232 243 245 253 249 253 266 264 264 256 258 259 263 258 260
215 217 218 212 208 203 199 204 208 206 208 224 230 215 215 210 204 207 217 222 224 237 232 234 248 256 257 244 245 254 257 263 262 260 262 265 264 261
215 217 218 208 212 208 206 207 210 211 206 206 218 219 217 210 200 210 213 229 247 241 232 240 252 255 255 248 240 249 261 266 265 264 264 264 264 262
220 219 217 212 213 207 209 209 203 203 204 206 207 205 207 204 197 200 220 230 244 252 245 255 260 255 258 260 250 251 256 261 263 262 264 267 267 265
221 220 220 220 220 213 209 203 198 201 200 206 211 207 205 198 209 202 216 222 238 222 243 252 249 243 247 255 251 250 255 260 261 259 260 264 269 270
221 221 221 218 219 220 217 210 204 200 201 207 215 216 214 208 204 205 201 201 234 208 216 255 237 243 242 234 261 265 260 259 268 269 264 265 268 268
220 217 221 219 215 214 216 217 220 221 214 209 213 218 212 205 199 206 213 213 224 202 198 239 230 242 242 253 260 260 259 259 269 274 271 269 270 269
221 217 216 217 213 208 208 211 217 221 218 215 216 217 215 211 205 208 212 212 235 214 189 229 234 246 257 242 247 246 253 260 267 270 273 273 271 271
224 220 216 216 214 207 205 210 216 222 220 219 220 218 216 216 207 182 184 194 225 227 196 203 229 260 258 246 244 245 249 258 265 268 272 275 273 268
226 224 225 222 213 208 206 206 213 215 198 198 208 216 212 205 207 206 195 197 202 220 192 184 194 187 276 256 237 242 247 255 261 264 268 272 273 263
227 225 223 222 219 217 217 211 213 202 189 186 189 194 200 200 204 214 207 197 199 219 188 177 191 203 219 259 261 246 246 250 251 256 258 263 263 261
230 229 225 225 221 218 217 209 199 192 181 180 189 198 204 205 203 207 208 209 212 218 200 184 194 204 208 246 259 253 253 250 255 266 260 260 261 265
241 237 223 213 205 204 206 200 191 186 183 189 199 206 206 198 183 184 193 188 215 227 210 208 200 210 216 226 242 250 270 262 240 245 260 258 259 258
249 229 206 195 191 186 192 196 194 192 189 193 194 193 180 184 186 187 196 187 205 240 241 222 208 201 220 234 235 250 244 242 244 252 264 271 265 256
195 170 166 172 179 178 178 184 187 187 192 187 185 186 185 192 198 190 191 189 202 215 227 233 221 227 233 223 236 244 248 255 248 253 270 278 270 260
194 183 189 189 188 187 186 186 187 193 193 185 183 188 194 201 201 195 197 202 209 215 216 210 188 338 311 281 231 231 242 250 254 252 259 271 277 271
175 184 187 191 190 187 187 187 191 190 187 185 188 193 195 199 195 198 202 209 215 214 211 198 193 193 226 262 269 223 229 252 259 264 259 264 273 279
92 189 193 187 184 187 186 182 181 181 186 193 196 196 195 197 198 201 203 210 218 218 218 210 208 209 218 235 254 264 243 238 242 261 276 282 281 284
19 334 195 173 176 183 188 187 187 190 190 194 201 198 196 198 204 204 204 215 222 219 221 228 232 228 215 193 258 273 271 260 258 255 260 277 288 288
5 345 13 136 168 189 186 186 186 190 193 198 204 202 199 200 203 203 202 205 216 223 232 237 201 196 196 217 248 265 281 294 292 284 273 258 254 254
354 353 2 26 43 109 176 188 199 204 203 202 202 207 202 202 205 204 205 206 207 212 217 225 220 214 229 228 246 262 270 282 293 301 300 294 285 276